Temperature
5 4 3 4 4 5 5 5 5 5 6 6 5 5 6 6 6 6 6 7 7 8 9 9 10 10 10 10 10 10 10 10 10 11 11 11 11 11 11 11 11 11 11 11
3 3 4 4 5 5 5 5 4 5 6 6 5 5 5 6 6 6 6 6 7 7 8 9 9 9 10 10 10 10 10 10 10 10 11 10 10 10 10 10 10 11 10 10
4 4 5 5 4 4 4 4 4 5 5 5 5 5 6 6 6 6 6 6 6 7 7 8 8 9 9 9 9 10 10 10 10 10 10 10 10 10 10 10 10 10 10 10
3 4 4 4 4 4 4 5 5 5 4 4 5 5 5 5 5 5 5 6 6 7 7 7 8 8 8 9 9 9 9 9 10 10 10 10 10 10 10 10 10 10 10 10
3 3 4 4 4 4 4 5 4 4 4 3 4 4 5 4 5 4 4 5 6 6 7 7 7 7 8 8 8 9 9 9 9 9 9 9 9 9 9 9 9 9 9 9
3 4 4 4 4 4 4 4 4 3 3 4 4 4 4 4 4 4 4 5 5 6 6 7 7 7 7 7 8 8 8 8 9 9 9 9 9 9 9 9 9 9 9 9
3 3 3 4 4 4 4 3 3 3 3 3 4 4 4 4 3 3 4 4 5 5 6 6 6 7 7 7 7 7 8 8 8 8 8 8 8 8 8 8 8 8 8 8
2 3 3 3 3 3 3 3 3 4 3 3 3 4 4 3 3 4 4 4 4 5 5 5 6 6 6 7 7 7 7 7 7 7 8 8 8 8 8 8 8 8 8 8
1 2 3 3 3 3 3 2 3 2 2 2 3 3 3 3 3 3 3 4 4 4 5 5 5 6 6 6 6 6 7 7 7 7 7 7 7 7 7 7 7 7 7 7
1 1 2 2 3 3 3 2 1 2 3 3 3 3 3 2 2 2 2 3 3 4 4 5 5 5 6 6 6 6 6 6 6 6 6 7 7 7 7 7 7 7 7 7
1 1 1 2 2 2 2 2 1 1 2 3 3 4 3 2 2 2 2 3 3 3 4 4 5 5 5 5 5 5 5 5 5 6 6 6 6 6 6 6 6 6 6 6
-0 -1 -0 1 1 2 2 1 1 2 1 1 1 3 3 1 1 1 2 2 3 3 4 4 4 4 4 4 4 4 5 5 5 5 5 5 5 5 6 5 5 5 5 6
-0 -1 1 2 2 1 1 1 0 0 0 -0 1 3 2 1 1 1 1 2 2 2 3 3 4 4 4 4 4 4 4 4 4 4 4 5 5 5 5 5 5 5 5 5
0 -2 0 2 2 0 -0 0 -0 -0 -0 -0 1 2 2 1 0 0 1 1 1 2 2 3 3 3 3 3 3 3 3 3 3 4 4 4 4 4 4 4 4 4 4 4
-1 -2 -2 -1 -1 -1 -1 -0 -0 -1 -0 0 1 1 1 1 -0 0 1 1 1 1 2 2 2 2 2 2 2 2 3 3 3 3 3 3 3 3 3 3 3 3 3 3
-3 -2 -2 -1 -1 -1 -1 -1 -1 -0 -0 -1 0 0 0 -0 -0 -0 -0 0 0 0 1 1 1 1 2 2 2 2 2 2 2 2 2 2 3 3 3 3 3 3 3 3
-4 -3 -2 -1 -2 -1 -0 -1 -1 -1 -1 -1 -0 0 -1 -1 -1 -1 -1 -0 -0 0 0 1 1 1 1 1 1 1 1 1 1 2 2 2 2 2 2 2 2 2 2 2
-4 -4 -4 -3 -2 0 1 -1 -2 -2 -2 -2 -1 -1 -1 -1 -1 -1 -1 -0 -0 0 0 0 0 0 0 0 0 0 0 0 1 1 1 1 1 1 1 1 1 1 1 1
-4 -4 -4 -4 -3 -2 -1 -2 -3 -2 -2 -2 -2 -2 -2 -1 -2 -1 -1 -1 -0 -0 -0 -0 -0 -0 -0 -0 -0 -0 -0 -0 0 0 0 0 0 1 1 1 1 1 1 1
-4 -5 -5 -4 -2 -0 0 -2 -2 -2 -1 -2 -2 -2 -2 -2 -2 -2 -1 -1 -1 -1 -1 -1 -1 -1 -1 -1 -1 -1 -1 -1 -1 -1 -0 -0 -0 -0 -0 0 0 -0 -0 -0
-4 -5 -5 -4 -3 -2 -2 -3 -2 -1 -0 -1 -1 -2 -2 -3 -2 -2 -2 -1 -1 -1 -1 -1 -1 -1 -1 -1 -1 -1 -1 -1 -1 -1 -1 -1 -1 -1 -1 -1 -1 -1 -1 -1
-4 -4 -5 -5 -4 -1 -3 -4 -2 -1 -1 -1 -1 -1 -2 -2 -2 -2 -2 -2 -2 -2 -2 -2 -2 -2 -2 -2 -2 -2 -2 -2 -2 -2 -2 -1 -1 -1 -1 -1 -1 -1 -1 -1
-4 -4 -4 -4 -2 -2 -2 -2 -1 -1 -1 -1 -1 -1 -1 -2 -2 -2 -2 -2 -2 -2 -2 -2 -2 -2 -2 -2 -2 -2 -2 -2 -2 -2 -2 -2 -2 -2 -2 -2 -2 -2 -2 -2
-5 -6 -5 -5 -4 -3 -2 -1 -1 -1 -1 -1 -1 -2 -2 -2 -2 -2 -3 -3 -3 -3 -3 -3 -3 -3 -3 -3 -3 -3 -3 -3 -3 -3 -2 -2 -2 -2 -2 -2 -2 -2 -2 -2
-5 -6 -6 -5 -5 -4 -2 -1 -0 -1 -1 -1 -2 -2 -2 -2 -2 -3 -3 -3 -3 -3 -3 -3 -3 -3 -3 -3 -3 -3 -3 -3 -3 -3 -3 -3 -3 -3 -3 -3 -3 -3 -3 -3
-6 -6 -5 -3 -3 -3 -2 -0 -1 -1 -1 -2 -2 -2 -2 -2 -3 -3 -3 -3 -3 -3 -4 -4 -4 -3 -3 -3 -3 -3 -4 -3 -3 -3 -3 -3 -3 -3 -3 -3 -3 -3 -3 -3
Wind_Speed
3 3 1 4 4 4 3 3 6 7 4 3 5 9 10 6 4 4 3 3 4 4 4 2 1 2 2 2 3 4 4 3 4 3 3 3 2 2 2 3 4 5 6 6
4 2 5 3 2 2 3 5 6 6 4 3 5 9 8 5 5 4 4 4 4 4 4 3 2 1 2 3 4 4 4 4 4 3 3 2 2 1 2 2 2 4 5 5
2 3 2 1 2 2 4 5 5 5 6 3 4 7 5 4 3 3 4 4 3 3 3 3 2 1 1 1 3 4 4 4 3 3 3 3 3 2 1 1 1 2 4 5
1 3 1 1 3 3 5 4 5 5 3 4 1 4 5 4 4 4 5 4 3 3 2 2 2 2 1 2 2 2 3 3 3 4 4 5 4 3 3 1 1 2 3 4
2 2 1 2 4 3 4 3 3 4 3 4 3 3 6 2 5 7 6 5 4 3 3 2 2 2 2 1 1 1 2 3 3 3 4 5 3 2 1 2 2 1 2 3
3 2 1 3 3 2 3 2 2 1 0 4 5 4 6 4 6 6 6 5 3 3 3 3 2 2 2 1 0 1 1 2 3 3 4 5 5 3 3 2 3 2 1 1
5 3 2 1 2 3 2 2 3 3 2 5 3 3 7 5 4 5 5 4 3 3 2 2 3 2 2 1 0 0 1 1 1 3 4 5 5 5 5 4 4 3 2 2
3 5 3 2 1 1 1 3 3 3 4 4 2 5 6 4 4 3 3 2 2 2 2 3 4 3 3 2 1 0 1 1 1 2 3 3 4 3 3 3 3 3 3 3
1 4 3 2 2 2 1 2 2 2 1 2 4 6 7 4 5 4 3 3 3 3 3 4 4 3 2 2 2 2 2 2 2 2 2 2 3 3 3 3 2 2 2 2
3 3 4 3 1 1 2 3 2 2 2 3 5 5 5 6 5 5 4 4 4 4 4 4 4 3 2 2 2 1 2 2 2 1 1 1 3 3 3 3 3 3 2 2
1 2 4 2 1 2 1 1 1 1 2 3 4 6 3 4 4 4 5 5 5 4 4 4 3 2 2 2 1 1 1 1 1 1 1 1 1 2 3 3 3 3 3 3
2 2 3 5 4 2 3 3 3 2 3 3 3 7 3 2 3 4 6 6 5 4 4 4 2 1 1 1 1 1 1 1 1 1 1 1 1 1 2 2 2 3 3 3
2 2 3 5 3 2 1 2 3 2 2 3 3 7 3 5 5 5 5 6 5 5 5 4 2 2 2 2 2 2 2 2 2 0 0 0 1 1 2 2 2 2 2 2
3 2 4 6 5 2 4 3 2 3 3 4 7 10 9 8 8 8 6 6 5 5 4 3 2 2 2 2 2 2 3 2 2 2 1 0 1 1 1 1 2 2 2 3
3 2 4 6 6 4 5 6 4 6 7 7 8 9 11 8 8 7 6 5 5 5 4 2 2 2 3 3 3 3 3 3 3 3 2 2 1 0 0 1 1 1 2 2
2 1 1 4 3 4 6 7 8 8 7 9 10 11 9 7 5 5 6 5 4 5 4 3 2 3 3 3 4 4 4 3 3 3 3 3 2 1 1 1 1 1 1 1
1 2 0 4 5 4 6 7 7 5 6 6 9 9 6 5 6 5 6 5 4 4 4 3 3 2 3 3 3 3 3 3 3 3 3 3 2 2 1 1 1 1 1 1
4 3 1 2 4 4 6 1 4 6 8 7 7 6 5 6 6 4 4 4 4 2 2 3 3 2 2 2 3 2 3 3 3 3 3 3 3 2 2 1 1 1 1 1
3 5 2 1 3 8 7 2 3 4 7 6 8 9 7 5 4 4 3 2 2 2 2 2 2 1 2 3 3 2 3 3 3 4 4 3 2 2 1 1 1 1 1 1
2 3 3 2 2 6 5 1 1 1 6 4 4 7 6 2 3 5 4 3 3 3 2 2 2 2 2 3 2 3 3 3 3 3 3 3 2 1 1 1 1 1 1 0
1 1 3 4 6 8 5 1 2 2 6 4 3 5 3 3 5 4 3 3 2 2 2 2 2 2 3 3 2 3 3 3 3 3 3 3 2 1 1 1 1 1 1 1
6 5 5 4 5 8 3 4 5 6 3 3 3 4 4 5 5 4 2 2 2 2 2 2 2 3 3 3 2 2 3 3 3 3 3 3 2 2 1 1 1 1 1 1
7 7 6 8 8 4 5 6 5 3 4 4 4 4 4 4 4 3 2 2 2 2 2 1 1 2 3 3 2 1 3 3 2 3 3 3 3 2 1 1 1 1 0 1
5 3 4 6 9 7 7 7 7 5 6 6 5 4 3 4 4 4 3 2 2 2 1 1 1 2 3 3 3 2 2 2 2 2 3 2 2 2 1 1 0 0 1 1
6 6 4 7 8 7 7 8 8 6 6 5 5 3 4 4 4 4 3 3 2 2 1 1 1 2 3 3 3 3 3 2 2 2 2 2 1 1 1 1 0 1 2 2
6 8 8 9 7 5 6 5 5 6 7 6 5 4 4 4 5 4 3 3 2 2 1 1 1 2 3 3 3 3 3 1 1 2 2 1 1 1 0 1 1 2 1 1
Wind_Direction
26 69 238 244 221 219 208 235 273 278 284 291 264 278 288 293 289 272 268 272 269 266 267 265 254 229 182 162 169 168 158 160 157 159 162 169 188 189 181 190 195 187 181 179
36 298 260 241 241 238 240 257 272 289 298 283 275 277 277 270 266 258 257 273 267 287 303 294 289 246 189 188 181 177 175 174 173 175 173 178 164 176 178 175 186 188 179 179
181 268 277 213 266 260 261 241 255 276 314 309 283 285 268 262 258 277 274 272 260 246 262 288 288 275 226 208 209 190 184 178 172 160 144 122 107 107 117 168 196 193 183 178
274 287 316 280 260 228 267 257 258 277 304 294 286 279 273 268 275 284 287 276 258 259 267 284 305 310 286 254 249 200 177 164 164 158 152 152 168 186 201 186 204 190 183 181
274 284 284 260 263 232 244 279 272 274 252 283 270 242 277 283 269 274 276 272 262 260 259 276 287 280 272 266 253 194 164 165 164 164 169 170 174 177 159 138 151 187 183 182
274 268 224 241 277 250 257 334 333 319 319 270 248 217 273 252 248 269 273 279 274 278 277 276 279 287 291 309 308 151 158 177 177 177 177 178 181 164 150 165 183 189 201 202
334 319 315 303 358 355 38 53 359 346 326 257 258 233 255 270 260 255 260 271 272 266 271 280 282 287 289 293 283 59 151 218 209 194 190 187 187 181 182 189 196 195 200 224
350 306 304 337 186 240 242 165 180 234 248 285 292 248 263 281 286 282 262 268 285 290 286 285 270 255 259 260 248 210 213 252 252 226 217 195 184 188 192 196 196 203 208 212
219 278 313 305 283 160 164 195 200 164 283 276 273 285 298 306 313 322 313 299 293 285 283 284 284 273 258 249 244 225 225 238 247 248 229 191 186 186 185 190 190 194 198 193
176 268 289 299 22 7 168 154 98 154 232 273 284 276 277 293 294 308 307 306 299 296 291 293 286 282 285 273 262 251 228 232 248 252 229 207 194 190 185 178 187 193 193 181
167 215 304 345 199 217 89 105 135 169 187 200 276 275 259 258 274 283 295 301 303 299 293 298 291 283 299 319 311 300 288 275 272 265 276 219 199 182 176 177 184 190 188 181
157 143 273 263 253 218 189 191 177 191 243 216 241 274 301 282 312 307 301 307 309 309 306 306 298 311 331 344 343 337 332 314 282 241 230 239 206 174 173 180 187 185 190 188
146 116 344 340 345 1 260 224 208 162 145 191 217 269 323 344 335 324 312 311 314 321 322 328 346 355 350 349 348 348 350 333 328 333 227 238 208 199 202 196 187 180 191 191
126 145 194 225 251 253 273 264 201 165 202 237 237 264 295 312 313 315 313 313 316 322 322 329 347 351 353 0 5 360 355 358 3 12 8 289 258 228 227 199 178 181 186 188
110 204 244 261 273 258 254 255 228 214 220 228 256 261 277 291 295 301 305 311 325 329 327 335 347 354 360 7 7 9 5 6 9 12 8 347 330 46 101 135 159 167 179 185
80 189 293 291 293 273 271 262 243 238 241 251 268 273 277 290 303 313 314 310 312 315 328 342 357 2 358 358 356 1 6 5 15 13 1 359 13 42 65 93 118 130 142 156
133 134 31 285 317 331 279 247 220 230 231 221 241 256 284 298 301 296 297 294 281 291 319 336 344 350 348 343 350 355 357 4 18 16 9 8 9 15 29 80 95 105 121 139
150 136 158 304 10 259 252 194 209 236 251 230 245 268 277 277 290 291 287 284 283 288 307 325 338 348 350 352 352 357 11 17 17 16 13 9 11 14 27 62 74 78 101 123
161 150 143 148 273 277 288 251 193 218 270 237 244 268 286 307 319 311 308 292 263 293 308 310 318 335 351 351 351 3 12 16 15 10 3 357 3 8 20 53 54 47 69 96
91 114 135 150 222 252 263 261 226 131 286 265 236 258 274 330 314 294 319 320 318 326 340 345 355 8 5 353 5 21 7 10 359 348 342 345 354 357 359 21 54 47 60 71
143 131 180 201 235 263 259 238 129 168 265 291 242 248 245 227 240 275 303 312 321 332 345 360 6 1 345 354 18 14 360 349 340 344 349 354 356 352 14 49 68 76 69 67
187 186 198 179 219 257 200 142 190 233 287 280 262 251 243 251 270 291 305 314 323 337 354 4 12 351 346 1 24 6 343 334 346 353 355 356 359 5 35 73 64 72 99 87
205 199 197 201 222 259 185 212 240 255 264 265 259 262 254 261 270 283 291 292 298 302 322 344 5 349 345 352 12 354 326 336 352 2 356 356 5 27 44 89 98 72 103 138
239 196 207 252 262 256 250 257 262 252 254 263 259 258 243 247 260 267 274 280 286 293 300 323 8 347 334 341 349 329 325 339 355 356 349 351 8 22 30 24 100 187 205 214
221 181 215 254 271 288 267 247 250 255 258 264 273 260 241 241 254 251 253 262 263 285 299 324 311 305 310 330 337 332 335 357 0 345 340 347 359 5 15 6 316 264 247 235
204 194 201 237 236 224 261 266 242 239 250 250 252 268 263 235 242 243 241 245 251 275 295 309 300 295 306 324 325 325 329 339 348 337 333 335 343 341 0 16 13 8 348 324
Height
1494 1498 1500 1499 1499 1499 1499 1500 1499 1494 1491 1491 1488 1485 1482 1480 1479 1478 1478 1478 1478 1478 1479 1480 1481 1482 1483 1485 1486 1487 1488 1491 1493 1495 1497 1499 1501 1503 1505 1507 1509 1510 1512 1513
1499 1500 1498 1497 1498 1498 1498 1499 1498 1493 1490 1489 1488 1484 1479 1477 1476 1475 1475 1476 1477 1476 1476 1477 1478 1479 1480 1482 1483 1484 1485 1487 1489 1491 1494 1496 1498 1500 1502 1505 1506 1507 1508 1510
1499 1499 1496 1496 1498 1498 1497 1498 1497 1495 1490 1488 1488 1481 1477 1474 1474 1473 1473 1473 1473 1474 1474 1475 1475 1476 1478 1479 1480 1481 1482 1484 1486 1488 1491 1493 1495 1497 1498 1500 1502 1504 1505 1507
1500 1497 1497 1496 1496 1496 1496 1494 1493 1493 1494 1493 1491 1487 1476 1474 1472 1471 1471 1471 1470 1471 1472 1473 1473 1474 1475 1476 1478 1479 1480 1481 1484 1486 1487 1489 1491 1492 1494 1496 1498 1501 1503 1504
1500 1498 1497 1496 1495 1495 1495 1492 1493 1493 1494 1496 1492 1491 1478 1474 1473 1470 1468 1467 1467 1468 1469 1470 1471 1472 1474 1474 1476 1476 1477 1479 1481 1482 1484 1486 1488 1490 1492 1494 1496 1498 1499 1501
1499 1497 1496 1495 1494 1493 1493 1493 1493 1495 1496 1496 1489 1491 1480 1476 1471 1468 1466 1465 1465 1465 1467 1468 1469 1471 1472 1472 1473 1473 1475 1476 1478 1479 1481 1483 1485 1486 1488 1490 1492 1493 1495 1497
1501 1497 1496 1495 1495 1494 1495 1498 1501 1498 1501 1495 1488 1487 1478 1470 1468 1466 1465 1464 1463 1464 1465 1466 1467 1468 1469 1469 1470 1471 1472 1474 1475 1477 1478 1479 1481 1483 1484 1486 1488 1490 1491 1493
1507 1503 1497 1495 1496 1497 1497 1499 1503 1500 1500 1495 1488 1484 1474 1469 1466 1464 1463 1463 1462 1463 1464 1464 1465 1466 1466 1467 1468 1469 1470 1471 1473 1474 1475 1477 1479 1480 1481 1483 1485 1486 1488 1489
1509 1504 1497 1495 1495 1495 1497 1499 1499 1504 1505 1502 1491 1484 1473 1467 1465 1463 1462 1461 1461 1461 1462 1462 1462 1463 1463 1464 1465 1466 1467 1468 1470 1471 1473 1474 1475 1477 1478 1480 1482 1483 1484 1486
1508 1508 1499 1497 1495 1496 1497 1498 1502 1503 1499 1496 1489 1485 1476 1470 1466 1464 1462 1460 1459 1459 1460 1460 1460 1460 1461 1461 1462 1464 1464 1465 1467 1468 1470 1471 1472 1473 1475 1476 1478 1479 1481 1482
1507 1509 1504 1499 1498 1498 1499 1500 1501 1503 1502 1498 1494 1481 1470 1468 1466 1464 1462 1460 1459 1458 1458 1458 1457 1458 1458 1459 1460 1461 1462 1463 1464 1465 1466 1467 1469 1470 1471 1472 1474 1476 1477 1478
1506 1510 1509 1502 1497 1496 1497 1498 1500 1500 1501 1502 1497 1482 1468 1467 1465 1463 1462 1459 1458 1457 1456 1455 1455 1456 1456 1457 1457 1458 1459 1460 1461 1462 1463 1464 1465 1467 1468 1469 1470 1472 1473 1475
1505 1510 1508 1499 1501 1500 1499 1497 1498 1500 1502 1504 1500 1481 1467 1466 1464 1463 1461 1459 1457 1456 1455 1454 1454 1454 1455 1455 1456 1456 1457 1458 1459 1459 1460 1461 1462 1463 1464 1465 1467 1468 1469 1471
1503 1509 1508 1501 1497 1500 1499 1497 1497 1499 1500 1498 1491 1478 1469 1467 1465 1463 1461 1459 1457 1455 1454 1453 1453 1453 1454 1454 1454 1454 1455 1456 1456 1457 1458 1458 1459 1459 1460 1462 1463 1465 1466 1467
1503 1508 1508 1503 1499 1500 1498 1495 1495 1495 1492 1491 1481 1478 1469 1467 1466 1463 1460 1458 1456 1455 1453 1453 1452 1452 1452 1452 1453 1453 1453 1453 1453 1454 1455 1455 1456 1456 1458 1459 1460 1461 1463 1464
1505 1508 1507 1502 1497 1497 1495 1491 1491 1490 1489 1486 1480 1474 1467 1466 1464 1462 1459 1457 1455 1455 1453 1453 1452 1452 1452 1452 1452 1452 1452 1452 1452 1452 1452 1452 1453 1454 1455 1456 1457 1458 1459 1461
1507 1508 1507 1502 1501 1494 1491 1485 1486 1485 1482 1481 1478 1471 1467 1465 1463 1461 1459 1457 1455 1454 1453 1453 1452 1451 1451 1451 1451 1451 1450 1450 1450 1450 1450 1451 1451 1452 1452 1453 1454 1455 1456 1458
1505 1508 1510 1508 1504 1494 1480 1479 1479 1479 1476 1474 1471 1467 1465 1464 1462 1460 1458 1456 1454 1454 1453 1453 1452 1451 1451 1451 1451 1450 1450 1449 1449 1449 1449 1449 1449 1449 1450 1451 1452 1453 1454 1455
1501 1505 1511 1512 1508 1495 1481 1478 1479 1478 1474 1469 1468 1465 1463 1462 1460 1458 1457 1455 1454 1454 1453 1452 1452 1451 1450 1450 1449 1449 1448 1448 1448 1447 1447 1447 1448 1447 1448 1449 1449 1450 1451 1452
1502 1504 1510 1512 1504 1491 1476 1476 1474 1477 1473 1464 1464 1462 1462 1461 1462 1459 1456 1454 1453 1452 1452 1451 1451 1450 1449 1449 1448 1447 1447 1447 1447 1447 1446 1446 1446 1446 1446 1447 1447 1448 1449 1450
1503 1506 1508 1509 1505 1489 1476 1475 1475 1478 1469 1463 1461 1460 1460 1460 1460 1458 1455 1454 1452 1452 1451 1450 1450 1449 1448 1448 1447 1447 1446 1446 1446 1446 1445 1445 1445 1445 1445 1445 1445 1446 1447 1447
1497 1500 1503 1504 1501 1485 1472 1473 1474 1468 1463 1461 1460 1459 1458 1457 1456 1455 1454 1453 1452 1450 1450 1449 1448 1448 1448 1447 1446 1445 1445 1445 1445 1444 1444 1444 1444 1444 1444 1444 1444 1445 1445 1445
1490 1487 1487 1487 1478 1469 1467 1465 1464 1463 1462 1460 1459 1458 1457 1455 1453 1453 1452 1451 1450 1450 1449 1448 1447 1447 1447 1446 1446 1444 1444 1444 1444 1443 1443 1443 1442 1443 1443 1443 1443 1443 1444 1444
1483 1481 1482 1480 1469 1465 1464 1462 1461 1460 1459 1458 1457 1456 1454 1453 1452 1451 1450 1449 1449 1448 1447 1447 1446 1445 1445 1445 1444 1443 1443 1443 1442 1442 1441 1441 1441 1441 1442 1442 1442 1442 1442 1442
1475 1478 1478 1474 1465 1461 1458 1457 1457 1456 1456 1455 1454 1453 1452 1450 1449 1448 1447 1447 1447 1447 1446 1445 1445 1444 1444 1444 1443 1442 1442 1441 1441 1440 1440 1440 1440 1440 1440 1440 1440 1440 1440 1441
1467 1469 1470 1463 1458 1458 1455 1453 1453 1453 1452 1451 1450 1449 1449 1448 1447 1446 1445 1445 1445 1445 1444 1444 1443 1443 1443 1442 1441 1441 1441 1440 1439 1439 1438 1438 1438 1438 1438 1438 1438 1439 1439 1439